Location: Unspecified
(40.7945°N, 0.0000°E)
Time: 19:29:52
(UTC+00:00)

Explorer 7 - Pass Details

Date: 27 June 2021
Orbit: 484 x 676 km, 50.3° (Epoch: 30 July)

Event Time Altitude Azimuth Distance (km) Brightness Sun altitude
Rises 21:07:09 0° 293° (WNW) 3,027 11.8 -14.0°
Reaches altitude 10° 21:09:52 10° 306° (NW) 2,112 11.1 -14.3°
Maximum altitude 21:13:59 26° 3° (N) 1,302 9.2 -14.8°
Drops below altitude 10° 21:18:03 10° 61° (ENE) 2,074 9.6 -15.3°
Sets 21:20:41 0° 74° (ENE) 2,960 10.3 -15.6°
